User: anonymous   Login
Location: Caltech
(34.1382°N, 118.1253°W)
Time: 06:01:59
(UTC-07:00)
Language:

Cosmos 1025 Rocket - Orbit

View from above orbital plane
View from above orbital plane
View from above satellite
View from above satellite

Ground track
Ground track

The orbit data is extracted from the following two-line orbital elements,

1 10974U 78067B   16126.23060931  .00000163  00000-0  15428-4 0  9993
2 10974  82.4840 195.5387 0015957 253.6389 106.3074 14.87150226 46928
Epoch (UTC): 05 May 2016 05:32:04
Eccentricity: 0.0015957
inclination: 82.4840°
perigee height: 596 km
apogee height: 618 km
right ascension of ascending node: 195.5387°
argument of perigee: 253.6389°
revolutions per day: 14.87150226
mean anomaly at epoch: 106.3074°
orbit number at epoch: 4692

The dashed part of the orbit path shows where the satellite is in the earth's shadow,  

DLR